Home   Weather   Fort Bragg   Past weeks
Flag for USA

Past Weather in Fort Bragg, California, USA — Yesterday and Last 2 Weeks

Now
83 °F

Sunny.


Feels Like: 83 °F
Forecast: 62 / 52 °F
Wind: 7 mph from Southeast

Location: Ukiah Municipal

Current Time: Jun 15, 2019 at 7:56:22 pm

Latest Report: Jun 15, 2019 at 6:56 pm


Visibility: 10 mi

Pressure: 29.81 "Hg

Humidity: 46%

Dew Point: 60 °F

Location of Fort BraggLocation

Past Weather in Fort Bragg — Graph

°F

Fort Bragg Temperature Yesterday

Maximum temperature yesterday: 92 °F (at 2:56 pm)
Minimum temperature yesterday: 55 °F (at 4:56 am)
Average temperature yesterday: 72 °F

High & Low Weather Summary for the Past Weeks

 TemperatureHumidityPressure
High101 °F (Jun 11, 2:56 pm)90% (Jun 2, 6:56 am)30.09 "Hg (Jun 2, 6:56 am)
Low46 °F (Jun 8, 4:56 am)9% (Jun 8, 1:56 pm)29.68 "Hg (Jun 1, 3:56 pm)
Average72 °F46%29.91 "Hg
* Reported May 31 5:56 pm — Jun 15 5:56 pm, Fort Bragg. Weather by CustomWeather, © 2019

Note: Actual official high and low records may vary slightly from our data, if they occured in-between our weather recording intervals... More about our weather records

Advertising

Fort Bragg Weather History for the Previous 24 Hours

Scroll right to see more
 ConditionsComfort  
Time TempWeatherWind HumidityBarometerVisibility
5:56 pm
Sat, Jun 15
86 °FSunny.8 mph42%29.81 "Hg10 mi
4:56 pm86 °FSunny.8 mph39%29.82 "Hg10 mi
3:56 pm86 °FSunny.9 mph40%29.83 "Hg10 mi
2:56 pm85 °FSunny.7 mph40%29.84 "Hg10 mi
1:56 pm83 °FSunny.10 mph40%29.85 "Hg10 mi
12:56 pm81 °FSunny.9 mph39%29.86 "Hg10 mi
11:56 am77 °FSunny.6 mph42%29.87 "Hg10 mi
10:56 am72 °FSunny.6 mph48%29.89 "Hg10 mi
9:56 am65 °FSunny.3 mph61%29.90 "Hg10 mi
8:56 am59 °FSunny.3 mph72%29.90 "Hg10 mi
7:56 am56 °FSunny.5 mph81%29.91 "Hg10 mi
7:32 am54 °FScattered clouds.6 mph86%29.93 "Hg10 mi
6:56 am53 °FLow clouds.5 mph89%29.91 "Hg9 mi
6:28 am52 °FScattered clouds.5 mph89%29.93 "Hg9 mi
5:56 am52 °FSunny.3 mph89%29.90 "Hg9 mi
4:56 am53 °FClear.5 mph86%29.88 "Hg10 mi
3:56 am54 °FClear.3 mph83%29.88 "Hg10 mi
2:56 am56 °FClear.5 mph77%29.87 "Hg10 mi
1:56 am58 °FClear.3 mph70%29.87 "Hg10 mi
12:56 am60 °FClear.No wind67%29.88 "Hg10 mi
11:56 pm
Fri, Jun 14
63 °FClear.No wind60%29.88 "Hg10 mi
10:56 pm65 °FClear.No wind54%29.87 "Hg10 mi
9:56 pm68 °FClear.No wind47%29.87 "Hg10 mi
8:56 pm73 °FClear.5 mph32%29.85 "Hg10 mi
7:56 pm78 °FSunny.6 mph35%29.84 "Hg10 mi
Weather by CustomWeather, © 2019

See weather overview